TITAN 3C TRANSTAGE DEB, 36983

Orbit data source: Space-Track

TITAN 3C TRANSTAGE DEB, 36983 is space debris originally from a launch on Tue, 21 Dec 1965 UTC launched from the Air Force Eastern Test Range (AFETR). Debris objects in space refer to the collection of defunct objects orbiting the Earth. Examples of debris include non-operational satellites, rocket bodies, and fragments generated from explosions, collisions, or faulty payload assembly.

Loading next visibility...
Identifier
36983, 1965-108DP
Orbit
Active
Country
Flag of USUS
Related business
Manufacturer
Unknown
Mission
Spacecraft
Bus & Motor
Unknown
Mass
Unknown
Launch date (UTC)
1965-12-21 (61 years ago)
Launch vehicle
Unknown
Launch site
Air Force Eastern Test Range (AFETR)
Object type
Payload
Rocket body
Debris
Shape & HBR
Unknown shape, 0.3 m
Radar Cross Section
Medium (>0.1 m² and <1 m²)

Expand to show TLE details & history
Last TLE update: 2 days ago

TLE from 2 days ago
0 TITAN 3C TRANSTAGE DEB
1 36983U 65108DP  26252.52115485  .00105660  00000-0  14741-2 0  9994
2 36983  27.0678 314.0985 4296237 256.8339  53.1238  7.00653146607041
Epoch: 2026-09-09T12:30Z
TLE epoch observation values (Epoch: 2026-09-09T12:30:27.779Z)
Latitude
-0.00001°
Longitude
137.91071°
Altitude
4,051.726 km
Speed
6.472 km/s
True Right ascension
20h 56m 23s
True Declination
0° 00' 00"
Sunlit
Object was in full shadow at epoch
Visualization orbit readout
Latitude
Unknown
Longitude
Unknown
Altitude
Unknown
Speed
Unknown
Apparent Right ascension
Unknown
Apparent Declination
Unknown
Sunlit
N/A
Visualization observer readout
Local Sidereal Time
19:04:35
Azimuth
Unknown
Elevation
Unknown
Doppler factor
Unknown
Orbital elements
Apogee altitude
10,119.549 km
Perigee altitude
203.937 km
Semi-major axis
11,539.88 km
Eccentricity
0.42962
Inclination
27.0678°
RAAN
314.0985°
Arg. of periapsis
256.8339°
True anomaly
103.21515°
Mean anomaly
53.1238°
Eccentric anomaly
77.12008°
Mean motion
1.75082 °/min
Orbital period
205.62 mins
BSTAR
0.0014741
Loading maneuver chart data...
Computing Atmospheric mass density...

Documentation

Showing up to 5 results
|